Regional Weather Roundup
Issued by NWS

Home | Current Version | Previous Version | Text Only | Print | Product List | Glossary Off
Versions: 1 2 3 4 5 6 7 8 9 10 11 12 13 14 15 16 17 18 19 20 21 22 23 24 25 26 27 28 29 30 31 32 33 34 35 36 37 38 39 40 41 42 43 44 45 46 47 48 49 50

000
ASUS43 KIND 250009
RWRIN

WEATHER ROUNDUP FOR INDIANA
NATIONAL WEATHER SERVICE INDIANAPOLIS IN
800 PM EDT WED MAY 24 2017

NOTE: "FAIR" INDICATES FEW OR NO CLOUDS BELOW 12,000 FEET WITH NO
SIGNIFICANT WEATHER AND/OR OBSTRUCTIONS TO VISIBILITY.

* - STATION DOES NOT REPORT WEATHER SUCH AS PRECIPITATION OR FOG.

+ - STATION NOT QUALITY CONTROLLED BY THE NATIONAL WEATHER SERVICE.
    USE DATA WITH CAUTION...ESPECIALLY DEWPOINT AND RELATIVE
    HUMIDITY OBSERVATIONS.

INZ001>003-010>013-019-020-250100-
NORTHWEST INDIANA

CITY           SKY/WX    TMP DP  RH WIND       PRES   REMARKS
GARY /AIRPORT/ LGT RAIN  52  50  93 N14       29.55F
KNOX *+        CLOUDY    59  55  88 N7        29.50S
LA PORTE +     RAIN      54  53  96 N7        29.53R
6HR MIN TEMP:  54; 6HR MAX TEMP:  64; 6HR PCP:  0.18;

MICHIGAN CITY+ LGT RAIN  50  50 100 W3        29.54R
MONTICELLO +   DRIZZLE   58  57  95 N10       29.47S
6HR MIN TEMP:  58; 6HR MAX TEMP:  63; 6HR PCP:  0.14;

RENSSELAER +   LGT RAIN  55  54  94 NW8       29.50R
VALPARAISO     LGT RAIN  53  52  96 N7        29.54R FOG
6HR MIN TEMP:  53; 6HR MAX TEMP:  66; 6HR PCP:  0.09;


$$

LMZ046-743>745-250100-
SOUTHERN LAKE MICHIGAN

STATION/POSITION TIME  TEMP    WIND        PRES    WAVE
                       AIR SEA DIR/SP/G            HT
                 (UTC) (F)     (DEG/KT/KT) (MB)    (FT)
BURNS HARBOR     2340   50     330/ 16/ 19 1000.7S
MICHIGAN CITY    2340   50     320/ 10/ 10   N/A
5NW MICH CITY    0000   49 53  330/ 10/ 12   N/A     4

$$

INZ004-005-014>016-021>024-250100-
NORTH CENTRAL INDIANA

CITY           SKY/WX    TMP DP  RH WIND       PRES   REMARKS
ELKHART        LGT RAIN  59  57  94 NE9       29.51S
GOSHEN         RAIN      60  56  86 NE12      29.49F FOG
6HR MIN TEMP:  60; 6HR MAX TEMP:  72; 6HR PCP:  0.19;

LOGANSPORT +   RAIN      59  55  88 N12G18    29.47S
PERU/GRISSOM   DRIZZLE   59  59  99 N13       29.45S
6HR MIN TEMP:  59; 6HR MAX TEMP:  62; 6HR PCP:  0.42;

ROCHESTER +    RAIN     N/A N/A N/A NE6       29.48F
SOUTH BEND     LGT RAIN  57  57 100 N6        29.53R
6HR MIN TEMP:  57; 6HR MAX TEMP:  70; 6HR PCP:  0.27;

WARSAW +       HVY RAIN  59  55  88 NE7       29.49S

$$

INZ006>009-017-018-025>027-250100-
NORTHEAST INDIANA

CITY           SKY/WX    TMP DP  RH WIND       PRES   REMARKS
ANGOLA *+      CLOUDY    57  45  62 N6        29.49S
AUBURN +       HVY RAIN  59  55  88 N12G17    29.47S
FORT WAYNE     LGT RAIN  59  56  89 N13       29.44S
6HR MIN TEMP:  57; 6HR MAX TEMP:  69; 6HR PCP:  1.06;

HUNTINGTON +   LGT RAIN  57  56  96 N9G18     29.44F
6HR MIN TEMP:  56; 6HR MAX TEMP:  67; 6HR PCP:  0.62;

KENDALLVILLE + RAIN      58  58  98 NE7       29.49S

$$

INZ028-029-035-036-043>045-051>053-250100-
WEST CENTRAL INDIANA

CITY           SKY/WX    TMP DP  RH WIND       PRES   REMARKS
CRAWFORDSVL +  CLOUDY    58  54  86 N12       29.46S
6HR MIN TEMP:  56; 6HR MAX TEMP:  60; 6HR PCP:  0.06;

GREENCASTLE +  CLOUDY    59  54  82 N9        29.46R
LAFAYETTE      CLOUDY    59  56  89 N15       29.47R
6HR MIN TEMP:  59; 6HR MAX TEMP:  62; 6HR PCP:  0.12;

TERRE HAUTE    CLOUDY    60  56  86 NW6       29.46S
6HR MIN TEMP:  59; 6HR MAX TEMP:  62; 6HR PCP:  0.09;


$$

INZ030>032-037>040-046>048-054>057-064-065-250100-
CENTRAL INDIANA

CITY           SKY/WX    TMP DP  RH WIND       PRES   REMARKS
CP ATTERBURY + CLOUDY    59  55  88 NW8       29.43R
COLUMBUS       CLOUDY    59  55  88 NW9       29.41S
FRANKFORT +    DRIZZLE   61  58  90 N13       29.47S
6HR MIN TEMP:  61; 6HR MAX TEMP:  64; 6HR PCP:  0.05;

INDIANAPOLIS   CLOUDY    60  56  86 N12       29.44R
6HR MIN TEMP:  59; 6HR MAX TEMP:  60; 6HR PCP:  0.15;

-EAGLE CREEK   CLOUDY    60  56  86 N10       29.43R
6HR MIN TEMP:  59; 6HR MAX TEMP:  60; 6HR PCP:  0.20;

KOKOMO +       LGT RAIN  59  57  93 N14       29.46S
6HR MIN TEMP:  58; 6HR MAX TEMP:  62; 6HR PCP:  0.42;

MARION +       CLOUDY    57  55  94 N10       29.44S FOG
MT COMFORT *+  CLOUDY    57  55  94 N14       29.43R
SHELBYVILLE    LGT RAIN  61  57  87 N12       29.40S
6HR MIN TEMP:  60; 6HR MAX TEMP:  64; 6HR PCP:  0.25;

ZIONSVILLE +   CLOUDY    58  55  92 N14       29.44S
6HR MIN TEMP:  56; 6HR MAX TEMP:  61; 6HR PCP:  0.33;


$$

INZ033-034-041-042-049-050-058-059-250100-
EAST CENTRAL INDIANA

CITY           SKY/WX    TMP DP  RH WIND       PRES   REMARKS
MUNCIE         LGT RAIN  61  57  87 N12       29.42S
6HR MIN TEMP:  59; 6HR MAX TEMP:  61;

RICHMOND +     HVY RAIN  55  55 100 N13       29.40S

$$

INZ060-061-067>069-081>083-085>088-250100-
SOUTHWEST INDIANA

CITY           SKY/WX    TMP DP  RH WIND       PRES   REMARKS
EVANSVILLE     LGT RAIN  59  55  87 W7        29.51R
6HR MIN TEMP:  59; 6HR MAX TEMP:  60; 6HR PCP:  0.19;

HUNTINGBURG *+ LGT RAIN  57  55  94 W13       29.48R
6HR MIN TEMP:  57; 6HR MAX TEMP:  59; 6HR PCP:  0.42;

WASHINGTON +   LGT RAIN  58  56  94 NW7       29.47R
6HR MIN TEMP:  57; 6HR MAX TEMP:  60; 6HR PCP:  0.75;


$$

INZ062-063-066-070>080-084-089>092-250100-
SOUTH CENTRAL AND SOUTHEAST INDIANA

CITY           SKY/WX    TMP DP  RH WIND       PRES   REMARKS
BLOOMINGTON    CLOUDY    59  55  87 NW6       29.44R
6HR MIN TEMP:  59; 6HR MAX TEMP:  62; 6HR PCP:  0.08;

MADISON *+     CLOUDY    59  57  94 NW7       29.41R
NORTH VERNON + DRIZZLE   57  55  94 NW7       29.40S
SEYMOUR +      LGT RAIN  61  59  94 NW9       29.41R

$$




USA.gov is the U.S. government's official web portal to all federal, state and local government web resources and services.